Flag for Italy Weather past 2 weeks in Bologna, Italy

Now
75 °F

Passing clouds.


Feels Like: 77 °F
Forecast: 56 / 74 °F
Wind: 6 mph from Northeast

Location: Bologna / Borgo Panigale


UV Index: 5 (Moderate)

Visibility: N/A


Pressure: 29.92 "Hg

Humidity: 39%

Dew point: 48 °F

Location of BolognaLocation

Historic Weather in Bologna

°F

Bologna temperature yesterday

Maximum temperature yesterday: 73 °F (at 4:50 PM)
Minimum temperature yesterday: 50 °F (at 5:20 AM)
Average temperature yesterday: 61 °F

Past Weeks' High & Low Weather Summary

 TemperatureHumidityPressure
High77 °F (Apr 24, 3:20 PM)100% (Apr 12, 7:50 AM)30.18 "Hg (Apr 12, 7:50 AM)
Low41 °F (Apr 17, 5:20 AM)21% (Apr 16, 7:20 PM)29.59 "Hg (Apr 19, 3:20 AM)
Average57 °F68%29.93 "Hg
* Reported Apr 9 3:20 PM — Apr 24 3:20 PM, Bologna, Weather by CustomWeather, © 2014

Note: Actual official high and low records may vary slightly from our data, if they occured in-between our weather recording intervals... More about our weather records

Advertising

Historic Weather Conditions — Data for Previous 24 hours

 ConditionsComfort  
Time TempWeatherWind HumidityBarometerVisibility
3:20 PM
Apr 24
77 °FPassing clouds.3 mph39%29.92 "HgN/A
2:50 PM75 °FPassing clouds.6 mph41%29.92 "HgN/A
2:20 PM75 °FPassing clouds.8 mph44%29.92 "HgN/A
1:50 PM75 °FPassing clouds.8 mph41%29.95 "HgN/A
1:20 PM73 °FPassing clouds.7 mph50%29.95 "HgN/A
12:50 PM73 °FPassing clouds.8 mph47%29.95 "HgN/A
12:20 PM72 °FPassing clouds.8 mph57%29.95 "HgN/A
11:50 AM72 °FPassing clouds.10 mph53%29.98 "HgN/A
11:20 AM70 °FClear.9 mph57%29.98 "Hg5 mi
10:50 AM68 °FClear.9 mph64%29.98 "Hg5 mi
10:20 AM66 °FClear.10 mph68%29.98 "Hg5 mi
9:50 AM66 °FPassing clouds.7 mph68%29.98 "Hg5 mi
9:20 AM63 °FPassing clouds.7 mph73%29.98 "Hg5 mi
8:50 AM61 °FPassing clouds.3 mph83%29.98 "Hg5 mi
8:20 AM59 °FPassing clouds.5 mph77%29.98 "Hg5 mi
7:50 AM57 °FPassing clouds.3 mph82%29.98 "Hg5 mi
7:20 AM55 °FPassing clouds.7 mph88%29.98 "Hg4 mi
6:50 AM54 °FPassing clouds.6 mph88%29.95 "Hg4 mi
6:20 AM54 °FPassing clouds.7 mph88%29.95 "Hg4 mi
5:50 AM55 °FPassing clouds.5 mph82%29.98 "HgN/A
5:20 AM55 °FPassing clouds.5 mph82%29.98 "HgN/A
4:50 AM55 °FPassing clouds.8 mph88%29.98 "HgN/A
4:20 AM55 °FPassing clouds.2 mph88%29.98 "HgN/A
3:50 AM55 °FPassing clouds.6 mph88%29.98 "HgN/A
3:20 AM54 °FPassing clouds.5 mph88%29.98 "HgN/A
2:50 AM54 °FPassing clouds.5 mph88%29.98 "HgN/A
2:20 AM55 °FPassing clouds.3 mph88%29.98 "HgN/A
1:50 AM55 °FPassing clouds.5 mph88%29.98 "HgN/A
1:20 AM54 °FClear.5 mph88%29.98 "Hg10 mi
12:50 AM55 °FClear.5 mph88%29.98 "Hg10 mi
12:20 AM55 °FClear.3 mph88%29.98 "Hg10 mi
11:50 PM
Apr 23
57 °FClear.6 mph82%29.98 "Hg10 mi
11:20 PM57 °FClear.6 mph82%29.98 "Hg10 mi
10:50 PM59 °FPassing clouds.3 mph77%29.98 "HgN/A
10:20 PM59 °FClear.5 mph77%29.98 "Hg10 mi
9:50 PM61 °FPassing clouds.No wind77%29.98 "HgN/A
9:20 PM59 °FPassing clouds.No wind77%29.98 "HgN/A
8:50 PM64 °FPassing clouds.3 mph68%29.98 "HgN/A
8:20 PM66 °FPassing clouds.3 mph60%29.95 "HgN/A
7:50 PM68 °FPassing clouds.2 mph56%29.95 "HgN/A
7:20 PM70 °FPassing clouds.3 mph53%29.95 "HgN/A
6:50 PM72 °FPassing clouds.6 mph50%29.95 "HgN/A
6:20 PM72 °FScattered clouds.7 mph47%29.95 "HgN/A
5:50 PM72 °FScattered clouds.8 mph47%29.95 "HgN/A
5:20 PM72 °FScattered clouds.6 mph47%29.95 "HgN/A
4:50 PM73 °FScattered clouds.5 mph47%29.95 "HgN/A
4:20 PM72 °FScattered clouds.6 mph50%29.95 "HgN/A
Weather by CustomWeather, © 2014

See weather overview